tititudorancea.com
Station Historical Data
 
Daily Summary for February 27, 2017 Units:  Metric    English   Both
« Previous Day
Next Day »
Daily Weekly Monthly Yearly Custom
  Current: High: Low: Average:
Temperature: 33.4 °C 33.4 °C 13.1 °C 19.9 °C
Dew Point: 18.4 °C 18.8 °C 10.7 °C 13.6 °C
Humidity: 41 % 88 % 41 % 69 %
Wind Speed: 0 km/h 0 km/h 0 km/h 0 km/h
Wind Gust: 0 km/h 6.1 km/h - -
Wind:Calm - - North
Pressure: 1028.3 hPa 1029.7 hPa 1026.3 hPa -
Precipitation: 0 mm      
Historical Graphs
 
 
Ararat weather Find more about Weather in Ararat, AU


 



 


Tabular Data for February 27, 2017
Time Temperature Dew Point Pressure Wind Wind Speed Wind Gust Humidity Rainfall Rate (Hourly)
00:00 20.2 °C 13.4 °C 1026.3 hPa Calm     65 % 0 mm
00:05 20 °C 13.2 °C 1026.3 hPa Calm     65 % 0 mm
00:10 19.8 °C 13.3 °C 1026.3 hPa Calm     66 % 0 mm
00:15 19.7 °C 13.2 °C 1026.6 hPa Calm     66 % 0 mm
00:20 19.5 °C 13.2 °C 1026.6 hPa Calm     67 % 0 mm
00:25 19.3 °C 13.1 °C 1026.6 hPa Calm     67 % 0 mm
00:30 19.2 °C 12.9 °C 1026.3 hPa Calm     67 % 0 mm
00:35 19 °C 13 °C 1026.3 hPa Calm     68 % 0 mm
00:40 18.8 °C 12.8 °C 1026.6 hPa Calm     68 % 0 mm
00:45 18.6 °C 12.6 °C 1026.6 hPa Calm     68 % 0 mm
00:50 18.4 °C 12.4 °C 1026.3 hPa Calm     68 % 0 mm
00:55 18.3 °C 12.6 °C 1026.6 hPa Calm     69 % 0 mm
01:00 18.1 °C 12.4 °C 1026.6 hPa Calm     69 % 0 mm
01:05 18.1 °C 12.3 °C 1026.6 hPa Calm     69 % 0 mm
01:10 17.9 °C 12.4 °C 1026.3 hPa Calm     70 % 0 mm
01:15 17.8 °C 12.3 °C 1026.6 hPa Calm     70 % 0 mm
01:20 17.7 °C 12.3 °C 1026.6 hPa Calm     71 % 0 mm
01:25 17.6 °C 12.2 °C 1026.6 hPa Calm     71 % 0 mm
01:30 17.4 °C 12.1 °C 1026.6 hPa Calm     71 % 0 mm
01:36 17.3 °C 12.1 °C 1027 hPa Calm     71 % 0 mm
01:41 17.2 °C 12.1 °C 1026.6 hPa Calm     72 % 0 mm
01:46 17.1 °C 12 °C 1027 hPa Calm     72 % 0 mm
01:51 16.9 °C 11.9 °C 1026.6 hPa Calm     72 % 0 mm
01:56 16.8 °C 11.8 °C 1026.6 hPa Calm     72 % 0 mm
02:01 16.8 °C 11.9 °C 1026.6 hPa Calm     73 % 0 mm
02:06 16.7 °C 11.8 °C 1027 hPa Calm     73 % 0 mm
02:11 16.7 °C 11.8 °C 1027 hPa Calm     73 % 0 mm
02:16 16.6 °C 11.7 °C 1027 hPa Calm     73 % 0 mm
02:21 16.4 °C 11.5 °C 1026.6 hPa Calm     73 % 0 mm
02:26 16.2 °C 11.6 °C 1027 hPa Calm     74 % 0 mm
02:31 16.1 °C 11.4 °C 1026.6 hPa Calm     74 % 0 mm
02:36 16.1 °C 11.7 °C 1027 hPa Calm     75 % 0 mm
02:41 16 °C 11.6 °C 1026.6 hPa Calm     75 % 0 mm
02:46 15.9 °C 11.4 °C 1027 hPa Calm     75 % 0 mm
02:51 15.8 °C 11.4 °C 1027 hPa Calm     75 % 0 mm
02:56 15.8 °C 11.6 °C 1027 hPa Calm     76 % 0 mm
03:01 15.7 °C 11.4 °C 1027 hPa Calm     76 % 0 mm
03:06 15.7 °C 11.4 °C 1027 hPa Calm     76 % 0 mm
03:11 15.6 °C 11.4 °C 1027 hPa Calm     76 % 0 mm
03:16 15.5 °C 11.3 °C 1027 hPa Calm     76 % 0 mm
03:21 15.4 °C 11.2 °C 1027 hPa Calm     76 % 0 mm
03:26 15.4 °C 11.4 °C 1027 hPa Calm     77 % 0 mm
03:31 15.3 °C 11.3 °C 1027 hPa Calm     77 % 0 mm
03:36 15.3 °C 11.3 °C 1027 hPa Calm     77 % 0 mm
03:41 15.2 °C 11.2 °C 1027 hPa Calm     77 % 0 mm
03:46 15.2 °C 11.2 °C 1027 hPa Calm     77 % 0 mm
03:51 15.1 °C 11.3 °C 1027 hPa Calm     78 % 0 mm
03:56 15 °C 11.2 °C 1027 hPa Calm     78 % 0 mm
04:01 15 °C 11.2 °C 1027 hPa Calm     78 % 0 mm
04:06 14.9 °C 11.1 °C 1027 hPa Calm     78 % 0 mm
04:11 14.8 °C 11 °C 1027 hPa Calm     78 % 0 mm
04:16 14.8 °C 11.2 °C 1027 hPa Calm     79 % 0 mm
04:21 14.7 °C 11.1 °C 1027 hPa Calm     79 % 0 mm
04:26 14.7 °C 11.1 °C 1027 hPa Calm     79 % 0 mm
04:32 14.6 °C 11 °C 1027 hPa Calm     79 % 0 mm
04:37 14.5 °C 10.9 °C 1027 hPa Calm     79 % 0 mm
04:42 14.5 °C 11.1 °C 1027 hPa Calm     80 % 0 mm
04:47 14.4 °C 11 °C 1027 hPa Calm     80 % 0 mm
04:52 14.4 °C 11 °C 1027 hPa Calm     80 % 0 mm
04:57 14.3 °C 10.9 °C 1027 hPa Calm     80 % 0 mm
05:02 14.2 °C 10.8 °C 1027 hPa Calm     80 % 0 mm
05:07 14.2 °C 11 °C 1027 hPa Calm     81 % 0 mm
05:12 14.1 °C 10.9 °C 1027 hPa Calm     81 % 0 mm
05:17 14 °C 10.8 °C 1027.3 hPa Calm     81 % 0 mm
05:22 14 °C 10.8 °C 1027.3 hPa Calm     81 % 0 mm
05:27 13.9 °C 10.9 °C 1027.3 hPa Calm     82 % 0 mm
05:32 13.9 °C 10.9 °C 1027.3 hPa Calm     82 % 0 mm
05:37 13.8 °C 10.8 °C 1027.3 hPa Calm     82 % 0 mm
05:42 13.8 °C 10.8 °C 1027.7 hPa Calm     82 % 0 mm
05:47 13.7 °C 10.7 °C 1027.3 hPa Calm     82 % 0 mm
05:52 13.7 °C 10.7 °C 1027.7 hPa Calm     82 % 0 mm
05:57 13.6 °C 10.8 °C 1027.7 hPa Calm     83 % 0 mm
06:02 13.6 °C 10.8 °C 1027.7 hPa Calm     83 % 0 mm
06:07 13.5 °C 10.7 °C 1027.7 hPa Calm     83 % 0 mm
06:12 13.5 °C 10.7 °C 1027.7 hPa Calm     83 % 0 mm
06:17 13.4 °C 10.8 °C 1027.7 hPa Calm     84 % 0 mm
06:22 13.4 °C 10.8 °C 1027.7 hPa Calm     84 % 0 mm
06:27 13.4 °C 10.8 °C 1028 hPa Calm     84 % 0 mm
06:32 13.3 °C 10.9 °C 1027.7 hPa Calm     85 % 0 mm
06:37 13.3 °C 10.9 °C 1028 hPa Calm     85 % 0 mm
06:42 13.2 °C 10.8 °C 1028 hPa Calm     85 % 0 mm
06:43 13.2 °C 10.8 °C 1028 hPa Calm     85 % 0 mm
06:48 13.2 °C 10.8 °C 1028 hPa Calm     85 % 0 mm
06:53 13.1 °C 10.7 °C 1028 hPa Calm     85 % 0 mm
06:55 13.1 °C 10.8 °C 1028.3 hPa Calm     86 % 0 mm
07:00 13.1 °C 10.8 °C 1028.3 hPa Calm     86 % 0 mm
07:05 13.1 °C 10.8 °C 1028.3 hPa Calm     86 % 0 mm
07:10 13.1 °C 10.9 °C 1028 hPa Calm     87 % 0 mm
07:15 13.1 °C 10.9 °C 1028.3 hPa Calm     87 % 0 mm
07:20 13.1 °C 10.9 °C 1028.3 hPa Calm     87 % 0 mm
07:25 13.1 °C 11.2 °C 1028.3 hPa Calm     88 % 0 mm
07:30 13.3 °C 11.4 °C 1028.7 hPa Calm     88 % 0 mm
07:35 13.4 °C 11.5 °C 1028.7 hPa Calm     88 % 0 mm
07:40 13.6 °C 11.7 °C 1028.7 hPa Calm     88 % 0 mm
07:45 13.9 °C 11.9 °C 1028.7 hPa Calm     88 % 0 mm
07:50 14.2 °C 12.3 °C 1028.7 hPa Calm     88 % 0 mm
07:55 14.6 °C 12.7 °C 1028.7 hPa Calm     88 % 0 mm
08:00 15.1 °C 13.1 °C 1028.7 hPa Calm     88 % 0 mm
08:05 15.7 °C 13.6 °C 1028.7 hPa Calm     87 % 0 mm
08:10 16.4 °C 14.2 °C 1028.7 hPa Calm     87 % 0 mm
08:15 17.1 °C 14.5 °C 1028.7 hPa Calm     85 % 0 mm
08:20 17.8 °C 14.9 °C 1029 hPa Calm     83 % 0 mm
08:25 18.7 °C 15.4 °C 1029 hPa Calm     81 % 0 mm
08:30 19.6 °C 15.7 °C 1028.7 hPa Calm     78 % 0 mm
08:35 20.2 °C 15.8 °C 1029 hPa Calm     76 % 0 mm
08:40 20.9 °C 15.9 °C 1029 hPa Calm     73 % 0 mm
08:45 21.4 °C 16 °C 1029 hPa Calm     71 % 0 mm
08:50 22.1 °C 16.1 °C 1029.3 hPa Calm     69 % 0 mm
08:55 22.3 °C 15.9 °C 1029.3 hPa Calm     67 % 0 mm
09:00 22.7 °C 15.8 °C 1029 hPa Calm   1.1 km/h 65 % 0 mm
09:05 23.1 °C 15.6 °C 1029.3 hPa Calm   1.1 km/h 63 % 0 mm
09:11 23.5 °C 15.6 °C 1029.3 hPa Calm   1.1 km/h 61 % 0 mm
09:16 23.8 °C 15.6 °C 1029.3 hPa Calm     60 % 0 mm
09:21 24.1 °C 15.6 °C 1029.3 hPa Calm     59 % 0 mm
09:26 24.6 °C 16.1 °C 1029.3 hPa Calm     59 % 0 mm
09:31 24.9 °C 16.1 °C 1029 hPa Calm     58 % 0 mm
09:36 25.2 °C 15.8 °C 1029.3 hPa Calm     56 % 0 mm
09:41 25.6 °C 15.9 °C 1029.3 hPa Calm   6.1 km/h 55 % 0 mm
09:46 25.9 °C 16.3 °C 1029.3 hPa Calm   6.1 km/h 55 % 0 mm
09:47 25.9 °C 15.9 °C 1029.3 hPa Calm   6.1 km/h 54 % 0 mm
09:52 26.2 °C 15.8 °C 1029.3 hPa Calm     53 % 0 mm
09:57 26.6 °C 16.2 °C 1029.3 hPa Calm     53 % 0 mm
10:02 26.8 °C 16.4 °C 1029.3 hPa Calm     53 % 0 mm
10:07 27.1 °C 16.4 °C 1029.3 hPa Calm     52 % 0 mm
10:12 27.4 °C 16.7 °C 1029 hPa Calm     52 % 0 mm
10:17 27.6 °C 16.6 °C 1029.3 hPa Calm   1.1 km/h 51 % 0 mm
10:22 27.7 °C 16.7 °C 1029.3 hPa Calm   1.1 km/h 51 % 0 mm
10:27 27.9 °C 16.6 °C 1029.7 hPa Calm     50 % 0 mm
10:32 28.1 °C 16.7 °C 1029.3 hPa Calm     50 % 0 mm
10:37 28.4 °C 17 °C 1029.3 hPa Calm     50 % 0 mm
10:42 28.7 °C 17.3 °C 1029 hPa Calm     50 % 0 mm
10:47 29.2 °C 17.4 °C 1029 hPa Calm     49 % 0 mm
10:52 29.3 °C 17.2 °C 1029.3 hPa Calm     48 % 0 mm
10:57 29.5 °C 17.1 °C 1029.3 hPa Calm     47 % 0 mm
11:02 29.9 °C 17.4 °C 1029 hPa Calm   1.1 km/h 47 % 0 mm
11:07 30.2 °C 17.7 °C 1029 hPa Calm   1.1 km/h 47 % 0 mm
11:12 30.2 °C 17.3 °C 1029 hPa Calm     46 % 0 mm
11:17 30.3 °C 17.7 °C 1029 hPa Calm     47 % 0 mm
11:23 30.7 °C 17.8 °C 1029 hPa Calm     46 % 0 mm
11:28 30.8 °C 17.8 °C 1029.3 hPa Calm   1.1 km/h 46 % 0 mm
11:33 30.9 °C 18.1 °C 1029 hPa Calm   1.1 km/h 46 % 0 mm
11:38 31.2 °C 17.8 °C 1029 hPa Calm     45 % 0 mm
11:43 31.3 °C 18.1 °C 1028.7 hPa Calm     45 % 0 mm
11:48 31.6 °C 17.8 °C 1029 hPa Calm     44 % 0 mm
11:53 31.7 °C 17.9 °C 1028.7 hPa Calm     44 % 0 mm
11:58 31.9 °C 18.6 °C 1028.7 hPa Calm     45 % 0 mm
12:03 32.1 °C 17.9 °C 1028.7 hPa Calm     43 % 0 mm
12:08 32.2 °C 18 °C 1028.7 hPa Calm   1.1 km/h 43 % 0 mm
12:13 32.2 °C 18.5 °C 1028.7 hPa Calm   1.1 km/h 44 % 0 mm
12:18 32.3 °C 18.2 °C 1028.7 hPa Calm     43 % 0 mm
12:23 32.4 °C 18.3 °C 1028.7 hPa Calm     43 % 0 mm
12:28 32.7 °C 18.6 °C 1028.7 hPa Calm     43 % 0 mm
12:33 33 °C 18.8 °C 1028.7 hPa Calm     43 % 0 mm
12:38 32.9 °C 17.9 °C 1028.3 hPa Calm     41 % 0 mm
12:43 33 °C 18.4 °C 1028.7 hPa Calm     42 % 0 mm
12:48 33.2 °C 18.2 °C 1028.3 hPa Calm     41 % 0 mm
12:53 33.3 °C 18.7 °C 1028.3 hPa Calm     42 % 0 mm
12:58 33.4 °C 18.4 °C 1028.3 hPa Calm     41 % 0 mm
Ararat Weather
Compliments of Weather Underground - 1.25 mb
Click here to send mail.


ABOUT

Live weather data from Ararat, Victoria, Australia, 3377
Data uploaded from Cumulus every 5 minutes to Weather Underground.
This site then downloads the raw data for formatting and display.
Metric and imperial data can be displayed. Graphs and historical data available.
Includes Sun and Moon times and rain image live from BOM.

Check out Ararat Weather on Facebook, Twitter and Google +

Help support ongoing costs by checking out the ads





Follow @AraratWeather